Simultaneous Nadir Overpasses (SNOs) Predictions

Prediction of SNOs between NOAA-19 and TERRA Satellite Orbit:

Table of predicted SNOs for the next 14.0 days since TLE Epoch: 8/28/2021
Index Date (NOAA-19) Time (NOAA-19) Lat,Lon (NOAA-19) SZA (NOAA-19 ) Date (TERRA) Time (TERRA) Lat,Lon (TERRA) SZA (TERRA ) Distance(km) Time Diff (sec)
1 08/28/2021 16:18:16 80.40, -30.49 72.57 08/28/2021 16:18:29 80.41, -30.30 72.60 3.42 13
2 08/30/2021 21:51:25 -80.41, 66.23 106.62 08/30/2021 21:52:11 -80.39, 66.14 106.62 2.36 46
3 08/30/2021 22:42:23 80.39,-126.26 73.42 08/30/2021 22:41:37 80.40,-126.19 73.40 1.31 46
4 09/02/2021 04:15:31 -80.39, -29.40 105.76 09/02/2021 04:15:18 -80.41, -29.44 105.75 2.65 13
5 09/04/2021 09:48:39 80.42, 66.89 75.06 09/04/2021 09:48:59 80.40, 66.99 75.06 2.83 20
6 09/04/2021 10:39:38 -80.39,-125.38 104.90 09/04/2021 10:38:26 -80.40,-125.37 104.93 0.79 72
7 09/06/2021 15:21:46 -80.42, 163.69 104.09 09/06/2021 15:22:40 -80.42, 163.71 104.07 0.62 54
8 09/06/2021 16:12:45 80.39, -28.59 75.95 09/06/2021 16:12:06 80.41, -28.68 75.94 2.56 39
9 09/08/2021 21:45:52 -80.41, 68.00 103.20 09/08/2021 21:45:47 -80.43, 68.04 103.18 2.47 5
10 09/11/2021 03:19:01 80.42, 164.45 77.65 09/11/2021 03:19:27 80.43, 164.63 77.69 3.43 26



Historial Predications of SNOs between NOAA-19 and TERRA
